| time (UTC) | temp F | wind direction | speed MPH | gust MPH | rain 1hr in | rain 24hr in | rain mn in | humidity % | barometer mb |
| 20260904200029 | 80 | 360 | 0.0 | 5.0 | 0.00 | 0.00 | 0.00 | 46 | 1015.0 |
| 20260904194529 | 80 | 326 | 0.0 | 3.0 | 0.00 | 0.00 | 0.00 | 46 | 1014.9 |
| 20260904193036 | 80 | 326 | 0.0 | 4.0 | 0.00 | 0.00 | 0.00 | 46 | 1015.0 |
| 20260904191528 | 80 | 325 | 0.0 | 2.0 | 0.00 | 0.00 | 0.00 | 46 | 1015.1 |
| 20260904190037 | 81 | 325 | 0.0 | 5.0 | 0.00 | 0.00 | 0.00 | 46 | 1015.0 |
| 20260904184528 | 81 | 324 | 0.0 | 1.0 | 0.00 | 0.00 | 0.00 | 45 | 1014.9 |
| 20260904183024 | 81 | 325 | 0.0 | 5.0 | 0.00 | 0.00 | 0.00 | 45 | 1014.8 |
| 20260904181523 | 82 | 330 | 0.0 | 5.0 | 0.00 | 0.00 | 0.00 | 45 | 1014.6 |
| 20260904180022 | 82 | 306 | 3.0 | 7.0 | 0.00 | 0.00 | 0.00 | 44 | 1014.5 |
| 20260904174520 | 82 | 6 | 1.0 | 4.0 | 0.00 | 0.00 | 0.00 | 45 | 1014.4 |
| 20260904173021 | 83 | 310 | 0.0 | 3.0 | 0.00 | 0.00 | 0.00 | 45 | 1014.1 |
| 20260904171515 | 83 | 308 | 1.0 | 6.0 | 0.00 | 0.00 | 0.00 | 44 | 1013.7 |
| 20260904170015 | 84 | 77 | 1.0 | 7.0 | 0.00 | 0.00 | 0.00 | 43 | 1013.6 |
| 20260904164517 | 84 | 324 | 3.0 | 12.0 | 0.00 | 0.00 | 0.00 | 40 | 1013.4 |
| 20260904163019 | 85 | 298 | 4.0 | 12.0 | 0.00 | 0.00 | 0.00 | 40 | 1013.4 |
| 20260904161513 | 85 | 299 | 6.0 | 15.0 | 0.00 | 0.00 | 0.00 | 41 | 1013.3 |
| 20260904160015 | 86 | 339 | 5.0 | 16.0 | 0.00 | 0.00 | 0.00 | 40 | 1013.3 |
| 20260904154512 | 87 | 24 | 3.0 | 12.0 | 0.00 | 0.00 | 0.00 | 40 | 1013.1 |
| 20260904153011 | 87 | 318 | 3.0 | 10.0 | 0.00 | 0.00 | 0.00 | 40 | 1013.1 |
| 20260904151511 | 87 | 343 | 3.0 | 11.0 | 0.00 | 0.00 | 0.00 | 41 | 1013.0 |
| 20260904150023 | 87 | 16 | 3.0 | 11.0 | 0.00 | 0.00 | 0.00 | 40 | 1012.9 |
| 20260904144509 | 87 | 48 | 3.0 | 10.0 | 0.00 | 0.00 | 0.00 | 40 | 1012.9 |
| 20260904143009 | 88 | 255 | 3.0 | 11.0 | 0.00 | 0.00 | 0.00 | 39 | 1012.9 |
| 20260904141510 | 88 | 355 | 5.0 | 12.0 | 0.00 | 0.00 | 0.00 | 39 | 1012.8 |
| 20260904140009 | 88 | 340 | 6.0 | 12.0 | 0.00 | 0.00 | 0.00 | 40 | 1012.8 |
| 20260904134513 | 88 | 350 | 6.0 | 15.0 | 0.00 | 0.00 | 0.00 | 39 | 1012.9 |
| 20260904133006 | 89 | 332 | 5.0 | 12.0 | 0.00 | 0.00 | 0.00 | 39 | 1012.8 |
| 20260904131507 | 88 | 321 | 5.0 | 10.0 | 0.00 | 0.00 | 0.00 | 40 | 1012.8 |
| 20260904130011 | 87 | 350 | 5.0 | 14.0 | 0.00 | 0.00 | 0.00 | 41 | 1012.9 |
| 20260904124506 | 88 | 72 | 3.0 | 11.0 | 0.00 | 0.00 | 0.00 | 40 | 1012.8 |
| 20260904123014 | 88 | 355 | 5.0 | 18.0 | 0.00 | 0.00 | 0.00 | 39 | 1013.1 |
| 20260904121504 | 89 | 279 | 6.0 | 14.0 | 0.00 | 0.00 | 0.00 | 38 | 1013.0 |
| 20260904120003 | 89 | 343 | 4.0 | 11.0 | 0.00 | 0.00 | 0.00 | 38 | 1013.1 |
| 20260904114502 | 88 | 360 | 5.0 | 14.0 | 0.00 | 0.00 | 0.00 | 38 | 1013.2 |
| 20260904113101 | 88 | 128 | 4.0 | 19.0 | 0.00 | 0.00 | 0.00 | 39 | 1013.2 |
| 20260904111559 | 88 | 338 | 6.0 | 20.0 | 0.00 | 0.00 | 0.00 | 39 | 1013.5 |
| 20260904110058 | 88 | 270 | 5.0 | 14.0 | 0.00 | 0.00 | 0.00 | 39 | 1013.5 |
| 20260904104558 | 88 | 312 | 8.0 | 19.0 | 0.00 | 0.00 | 0.00 | 41 | 1013.4 |
| 20260904103056 | 88 | 315 | 8.0 | 17.0 | 0.00 | 0.00 | 0.00 | 41 | 1013.4 |
| 20260904101555 | 88 | 333 | 5.0 | 15.0 | 0.00 | 0.00 | 0.00 | 44 | 1013.4 |
| 20260904100056 | 88 | 5 | 3.0 | 15.0 | 0.00 | 0.00 | 0.00 | 43 | 1013.5 |
| 20260904094552 | 86 | 304 | 5.0 | 20.0 | 0.00 | 0.00 | 0.00 | 46 | 1013.5 |
| 20260904093051 | 86 | 279 | 8.0 | 17.0 | 0.00 | 0.00 | 0.00 | 47 | 1013.6 |
| 20260904091545 | 86 | 324 | 3.0 | 15.0 | 0.00 | 0.00 | 0.00 | 47 | 1013.5 |
| 20260904090001 | 86 | 350 | 6.0 | 13.0 | 0.00 | 0.00 | 0.00 | 49 | 1013.5 |
| 20260904084547 | 87 | 46 | 3.0 | 11.0 | 0.00 | 0.00 | 0.00 | 50 | 1013.6 |
| 20260904083006 | 86 | 360 | 5.0 | 13.0 | 0.00 | 0.00 | 0.00 | 51 | 1013.7 |
| 20260904081602 | 86 | 328 | 7.0 | 15.0 | 0.00 | 0.00 | 0.00 | 52 | 1013.7 |
| 20260904080014 | 85 | 54 | 3.0 | 11.0 | 0.00 | 0.00 | 0.00 | 52 | 1013.6 |
| 20260904074520 | 85 | 340 | 4.0 | 16.0 | 0.00 | 0.00 | 0.00 | 52 | 1013.5 |
| 20260904073018 | 85 | 305 | 6.0 | 14.0 | 0.00 | 0.00 | 0.00 | 50 | 1013.4 |
| 20260904071519 | 84 | 12 | 3.0 | 11.0 | 0.00 | 0.00 | 0.00 | 51 | 1013.3 |
| 20260904070019 | 84 | 25 | 5.0 | 15.0 | 0.00 | 0.00 | 0.00 | 50 | 1013.2 |
| 20260904064511 | 84 | 324 | 2.0 | 10.0 | 0.00 | 0.00 | 0.00 | 51 | 1013.0 |
| 20260904063007 | 83 | 281 | 4.0 | 12.0 | 0.00 | 0.00 | 0.00 | 53 | 1012.8 |
| 20260904061506 | 82 | 306 | 4.0 | 13.0 | 0.00 | 0.00 | 0.00 | 54 | 1012.7 |
| 20260904060059 | 82 | 293 | 2.0 | 12.0 | 0.00 | 0.00 | 0.00 | 55 | 1012.8 |
| 20260904054554 | 81 | 268 | 4.0 | 13.0 | 0.00 | 0.00 | 0.00 | 56 | 1013.0 |
| 20260904053050 | 81 | 326 | 2.0 | 9.0 | 0.00 | 0.00 | 0.00 | 56 | 1012.7 |
| 20260904051546 | 80 | 83 | 1.0 | 4.0 | 0.00 | 0.00 | 0.00 | 58 | 1012.5 |
| 20260904050040 | 79 | 195 | 1.0 | 3.0 | 0.00 | 0.00 | 0.00 | 60 | 1012.5 |
| 20260904044550 | 77 | 282 | 0.0 | 2.0 | 0.00 | 0.00 | 0.00 | 63 | 1012.6 |
| 20260904043045 | 77 | 282 | 0.0 | 2.0 | 0.00 | 0.00 | 0.00 | 63 | 1012.6 |
| 20260904041529 | 76 | 282 | 0.0 | 1.0 | 0.00 | 0.00 | 0.00 | 63 | 1012.6 |
| 20260904040026 | 76 | 282 | 0.0 | 3.0 | 0.00 | 0.00 | 0.00 | 62 | 1012.5 |
| 20260904034524 | 75 | 280 | 0.0 | 4.0 | 0.00 | 0.00 | 0.00 | 60 | 1012.4 |
| 20260904033024 | 75 | 280 | 0.0 | 3.0 | 0.00 | 0.00 | 0.00 | 61 | 1012.4 |
| 20260904031522 | 75 | 280 | 0.0 | 1.0 | 0.00 | 0.00 | 0.00 | 60 | 1012.4 |
| 20260904030023 | 75 | 280 | 0.0 | 1.0 | 0.00 | 0.00 | 0.00 | 60 | 1012.3 |
| 20260904024519 | 76 | 279 | 0.0 | 1.0 | 0.00 | 0.00 | 0.00 | 59 | 1012.2 |
| 20260904023017 | 76 | 280 | 0.0 | 1.0 | 0.00 | 0.00 | 0.00 | 58 | 1012.2 |
| 20260904021522 | 77 | 281 | 0.0 | 1.0 | 0.00 | 0.00 | 0.00 | 57 | 1012.2 |
| 20260904020013 | 77 | 281 | 0.0 | 1.0 | 0.00 | 0.00 | 0.00 | 56 | 1012.2 |
| 20260904014512 | 77 | 281 | 0.0 | 2.0 | 0.00 | 0.00 | 0.00 | 55 | 1012.3 |
| 20260904013011 | 77 | 281 | 0.0 | 2.0 | 0.00 | 0.00 | 0.00 | 54 | 1012.3 |
| 20260904011510 | 77 | 281 | 0.0 | 1.0 | 0.00 | 0.00 | 0.00 | 54 | 1012.3 |
| 20260904010108 | 78 | 281 | 0.0 | 2.0 | 0.00 | 0.00 | 0.00 | 54 | 1012.2 |
| 20260904004507 | 78 | 281 | 0.0 | 1.0 | 0.00 | 0.00 | 0.00 | 53 | 1012.1 |
| 20260904003006 | 78 | 281 | 0.0 | 1.0 | 0.00 | 0.00 | 0.00 | 52 | 1012.1 |
| 20260904001505 | 78 | 281 | 0.0 | 3.0 | 0.00 | 0.00 | 0.00 | 52 | 1012.2 |
| 20260904000005 | 78 | 280 | 0.0 | 3.0 | 0.00 | 0.00 | 0.00 | 51 | 1012.2 |
| 20260903234508 | 78 | 280 | 0.0 | 2.0 | 0.00 | 0.00 | 0.00 | 50 | 1012.2 |
| 20260903233001 | 78 | 280 | 0.0 | 2.0 | 0.00 | 0.00 | 0.00 | 49 | 1012.2 |
| 20260903231500 | 79 | 280 | 0.0 | 4.0 | 0.00 | 0.00 | 0.00 | 47 | 1012.2 |
| 20260903224559 | 79 | 280 | 0.0 | 1.0 | 0.00 | 0.00 | 0.00 | 45 | 1012.3 |
| 20260903223059 | 78 | 280 | 0.0 | 2.0 | 0.00 | 0.00 | 0.00 | 45 | 1012.3 |
| 20260903221559 | 78 | 280 | 0.0 | 1.0 | 0.00 | 0.00 | 0.00 | 46 | 1012.3 |
| 20260903220119 | 78 | 280 | 0.0 | 1.0 | 0.00 | 0.00 | 0.00 | 47 | 1012.2 |
| 20260903214554 | 79 | 280 | 0.0 | 0.0 | 0.00 | 0.00 | 0.00 | 45 | 1012.2 |
| 20260903213052 | 79 | 280 | 0.0 | 0.0 | 0.00 | 0.00 | 0.00 | 45 | 1012.2 |
| 20260903211555 | 80 | 280 | 0.0 | 0.0 | 0.00 | 0.00 | 0.00 | 44 | 1012.2 |
| 20260903210051 | 80 | 280 | 0.0 | 0.0 | 0.00 | 0.00 | 0.00 | 44 | 1012.1 |
| 20260903204548 | 81 | 280 | 0.0 | 1.0 | 0.00 | 0.00 | 0.00 | 43 | 1012.1 |
| 20260903203048 | 81 | 280 | 0.0 | 1.0 | 0.00 | 0.00 | 0.00 | 42 | 1012.2 |
| 20260903201548 | 81 | 280 | 0.0 | 1.0 | 0.00 | 0.00 | 0.00 | 41 | 1012.3 |